Location: Bucharest
(44.4268°N, 26.1025°E)
Time: 00:35:31
(UTC+03:00)

EO-88 - Visible Passes

Search period start: 29 June 2022 00:00
Search period end: 09 July 2022 00:00
Orbit: 457 x 464 km, 97.3° (Epoch: 28 June)

Date Brightness Start Highest point End Pass type
(mag) Time Alt. Az. Time Alt. Az. Time Alt. Az.
29 Jun ? 22:52:19 22° S 22:54:24 62° W 22:57:52 10° NNW visible
30 Jun ? 22:20:25 17° SE 22:22:51 48° ENE 22:26:13 10° N visible
30 Jun ? 23:55:17 10° WSW 23:56:07 11° W 23:56:56 10° WNW visible
01 Jul ? 21:48:47 10° ESE 21:51:24 20° ENE 21:54:02 10° NNE visible
01 Jul ? 23:22:23 16° SW 23:24:15 25° W 23:27:12 10° NW visible
02 Jul ? 22:50:27 22° S 22:52:31 66° W 22:56:00 10° NNW visible
03 Jul ? 22:18:30 17° SE 22:20:55 45° ENE 22:24:16 10° N visible
03 Jul ? 23:53:02 10° WSW 23:54:09 11° W 23:55:17 10° WNW visible
04 Jul ? 21:46:54 10° ESE 21:49:26 19° ENE 21:51:59 10° NNE visible
04 Jul ? 23:20:25 17° SW 23:22:16 26° W 23:25:15 10° NW visible
05 Jul ? 22:48:27 23° S 22:50:30 70° W 22:53:58 10° NNW visible
06 Jul ? 22:16:28 17° SE 22:18:51 42° ENE 22:22:09 10° N visible
06 Jul ? 23:50:41 10° WSW 23:52:03 12° W 23:53:26 10° WNW visible
07 Jul ? 21:44:53 10° ESE 21:47:19 18° ENE 21:49:46 10° NNE visible
07 Jul ? 23:18:19 18° SW 23:20:07 28° W 23:23:09 10° NW visible
08 Jul ? 22:46:19 24° S 22:48:18 75° WSW 22:51:47 10° NNW visible
